This is the latest recevied weather packets stored in our database for station/object KGRR-WX. If no packets are shown the sender has not sent any weather packets the latest 10 day(s).
| Time | Temp. | Humidity | Pressure | Rain* | Wind** | Luminosity | Snow |
|---|---|---|---|---|---|---|---|
| 1787833805 | 17.22° C | 96% | 985.1 hPa | 0 mm | - | - | - |
| 1787832905 | 16.11° C | 96% | 985.1 hPa | 0 mm | - | - | - |
| 1787832006 | 15.56° C | 96% | 985.1 hPa | 0 mm | - | - | - |
| 1787831105 | 15° C | 93% | 984.2 hPa | 0 mm | - | - | - |
| 1787830208 | 15° C | 93% | 984.2 hPa | 0 mm | - | - | - |
| 1787829305 | 14.44° C | 93% | 984.2 hPa | 0 mm | - | - | - |
| 1787828406 | 15° C | 93% | 984.2 hPa | 0 mm | - | - | - |
| 1787827506 | 15° C | 93% | 984.8 hPa | 0 mm | - | - | - |
| 1787826605 | 15° C | 93% | 984.9 hPa | 0 mm | - | - | - |
| 1787825705 | 15.56° C | 94% | 985.2 hPa | 0 mm | - | - | - |
| 1787824806 | 15.56° C | 94% | 985.2 hPa | 0 mm | - | - | - |
| 1787823910 | 15.56° C | 93% | 984.5 hPa | 0 mm | - | - | - |
| 1787823005 | 15.56° C | 93% | 984.5 hPa | 0 mm | - | - | - |
| 1787822108 | 15.56° C | 93% | 984.5 hPa | 0 mm | - | - | - |
| 1787821205 | 16.11° C | 93% | 984.5 hPa | 0 mm | - | - | - |
| 1787820305 | 16.11° C | 93% | 983.8 hPa | 0 mm | - | - | - |
| 1787819407 | 16.11° C | 93% | 983.8 hPa | 0 mm | - | - | - |
| 1787818504 | 16.67° C | 93% | 983.8 hPa | 0 mm | - | - | - |
| 1787817606 | 16.67° C | 93% | 984.3 hPa | 0 mm | - | - | - |
| 1787816707 | 16.67° C | 93% | 983.3 hPa | 0 mm | - | - | - |
| 1787815805 | 16.67° C | 92% | 984.3 hPa | 0 mm | - | - | - |
| 1787814904 | 16.11° C | 92% | 984.3 hPa | 0 mm | - | - | - |
| 1787814009 | 16.11° C | 92% | 984.3 hPa | 0 mm | - | - | - |
| 1787813105 | 16.67° C | 92% | 983.9 hPa | 0 mm | - | - | - |
| 1787812205 | 16.67° C | 92% | 983.9 hPa | 0 mm | - | - | - |
* Rain latest hour (hover to see other rain measurements)
** Current wind speed in m/s (hover to see current wind gust speed)